This demonstration page uses our WeatherBlox Daily Observations layout. Learn more.

Left ArrowRight Arrow

36.19886, -115.1175

Hourly Observations for March 6, 2016

Temp ( °F °C ) Dew Point ( °F °C ) Humidity (%) Winds ( mph kmh ) Pressure ( in mb ) Visibility ( mi km ) Precip ( " mm )
12:53 am 00:53 Clear 64 17.8 38 3.3 38 38 SSW 12 19 29.85 1011 10 16 0.00 0.00
1:53 am 01:53 Cloudy 65 18.3 35 1.7 33 33 SSW 9 15 29.87 1011 10 16 0.00 0.00
2:53 am 02:53 Partly Cloudy 64 17.8 36 2.2 35 35 SSW 6 9 29.83 1010 10 16 0.00 0.00
3:53 am 03:53 Mostly Cloudy 60 15.6 35 1.7 39 39 SW 28 44 29.83 1010 10 16 0.00 0.00
4:53 am 04:53 Mostly Clear 60 15.6 36 2.2 41 41 SSW 17 28 29.82 1010 10 16 0.00 0.00
5:53 am 05:53 Cloudy 60 15.6 36 2.2 41 41 SSW 16 26 29.82 1010 10 16 0.00 0.00
6:53 am 06:53 Partly Cloudy 60 15.6 39 3.9 46 46 SW 18 30 29.82 1010 10 16 0.00 0.00
7:53 am 07:53 Mostly Sunny 61 16.1 40 4.4 46 46 SSW 10 17 29.84 1010 10 16 0.00 0.00
8:53 am 08:53 Mostly Cloudy 64 17.8 38 3.3 38 38 S 16 26 29.80 1009 10 16 0.00 0.00
9:53 am 09:53 Mostly Sunny 68 20 38 3.3 33 33 SSW 25 41 29.78 1009 10 16 0.00 0.00
10:53 am 10:53 Mostly Sunny 68 20 37 2.8 32 32 SW 18 30 29.75 1008 10 16 0.00 0.00
11:53 am 11:53 Mostly Cloudy 63 17.2 38 3.3 40 40 W 32 52 29.76 1008 10 16 0.00 0.00
12:53 pm 12:53 Mostly Cloudy 57 13.9 37 2.8 47 47 WSW 23 37 29.75 1007 10 16 0.01 0.25
1:53 pm 13:53 Sunny 65 18.3 29 -1.7 26 26 W 23 37 29.69 1005 10 16 0.00 0.00
2:53 pm 14:53 Sunny 66 18.9 25 -3.9 21 21 W 20 31 29.70 1006 10 16 0.00 0.00
3:13 pm 15:13 Mostly Cloudy with Haze 58 14.4 33 0.6 39 39 NNW 47 76 29.65 1004 2 3 0.00 0.00
3:17 pm 15:17 Mostly Cloudy with Haze 57 13.9 34 1.1 42 42 NW 46 74 29.68 1005 1 1 0.00 0.00
3:24 pm 15:24 Mostly Cloudy with Haze 55 13 36 2 47 47 NNW 41 67 29.68 1005 2 2 0.00 0.00
3:27 pm 15:27 Cloudy with Haze 55 12.8 35 1.7 47 47 NNW 41 67 29.71 1006 3 5 0.00 0.00
3:53 pm 15:53 Mostly Cloudy 55 12.8 35 1.7 47 47 NNW 33 54 29.78 1008 10 16 0.00 0.00
4:53 pm 16:53 Mostly Sunny 54 12.2 35 1.7 49 49 N 17 28 29.81 1009 10 16 0.00 0.00
5:53 pm 17:53 Clear 53 11.7 35 1.7 51 51 N 14 22 29.83 1010 10 16 0.00 0.00
6:53 pm 18:53 Clear 53 11.7 34 1.1 48 48 N 8 13 29.84 1011 10 16 0.00 0.00
7:53 pm 19:53 Clear 52 11.1 33 0.6 49 49 NNW 6 9 29.85 1011 10 16 0.00 0.00
8:53 pm 20:53 Clear 51 10.6 35 1.7 54 54 Calm 29.86 1011 10 16 0.00 0.00
9:53 pm 21:53 Clear 51 10.6 35 1.7 54 54 S 5 7 29.85 1011 10 16 0.00 0.00
10:53 pm 22:53 Clear 49 9.4 33 0.6 55 55 N 3 6 29.87 1011 10 16 0.00 0.00
11:53 pm 23:53 Clear 47 8.3 34 1.1 61 61 N 5 7 29.87 1011 10 16 0.00 0.00

Powered by AerisWeather